period_start,C,m1,H,J0,J1,J2,J3,J4,J5,JA,JB,JC,JD,JJ,JK,JN,#
2013-10-30 00:00:19,0.00,1.84,0.00,22.93,25.02,27.83,5.90,29.92,1000.99,2053.03,2765.94,2833.00,3075.00,349.92,318.99,19.22,0000 0000 0000 0000 000000
2013-10-30 00:01:20,0.02,1.84,0.00,22.94,25.02,27.79,5.82,29.83,1000.99,2053.01,2765.72,2833.00,3075.00,349.56,318.65,19.22,0000 0000 0000 0000 000000
2013-10-30 00:02:20,0.03,1.84,0.00,22.92,25.02,27.79,5.74,29.83,1000.99,2053.02,2765.39,2833.00,3075.00,349.35,318.43,19.23,0000 0000 0000 0000 000000
2013-10-30 00:03:20,0.06,1.84,0.00,22.91,25.02,27.85,5.75,29.75,1000.99,2053.04,2765.19,2833.00,3075.00,349.47,319.30,19.24,0000 0000 0000 0000 000000
2013-10-30 00:04:20,0.05,1.84,0.00,22.90,25.02,27.84,5.99,29.83,1000.99,2053.06,2765.09,2832.99,3074.98,350.49,319.54,19.24,0000 0000 0000 0000 000000
2013-10-30 00:05:21,0.04,1.84,0.00,22.89,25.01,27.81,5.73,29.92,1000.99,2053.09,2765.04,2832.96,3074.97,349.61,318.76,19.25,0000 0000 0000 0000 000000
2013-10-30 00:06:21,0.03,1.84,0.00,22.90,25.00,27.83,5.63,29.79,1000.99,2053.11,2765.01,2832.98,3074.95,349.29,318.42,19.25,0000 0000 0000 0000 000000
2013-10-30 00:07:21,0.04,1.84,0.00,22.89,25.00,27.80,5.86,29.71,1000.99,2053.16,2765.01,2832.97,3074.88,350.53,319.59,19.26,0000 0000 0000 0000 000000
2013-10-30 00:08:21,0.03,1.84,0.00,22.88,25.00,27.79,5.82,29.71,1000.99,2053.16,2765.00,2832.97,3074.75,349.87,319.51,19.27,0000 0000 0000 0000 000000
2013-10-30 00:09:22,0.02,1.84,0.00,22.88,25.00,27.85,5.68,29.83,1000.99,2053.16,2765.00,2832.94,3074.50,349.10,318.30,19.27,0000 0000 0000 0000 000000
2013-10-30 00:10:22,0.06,1.84,0.00,22.88,25.00,27.86,5.80,29.88,1000.99,2053.20,2765.00,2832.87,3074.22,350.68,320.21,19.28,0000 0000 0000 0000 000000
2013-10-30 00:11:22,0.08,1.85,0.00,22.88,25.00,27.86,6.10,30.13,1000.99,2053.16,2765.00,2832.62,3074.09,350.86,319.90,19.28,0000 0000 0000 0000 000000
2013-10-30 00:12:23,0.07,1.85,0.00,22.88,25.00,27.85,5.93,30.00,1000.99,2053.16,2764.93,2832.32,3074.05,350.26,319.11,19.29,0000 0000 0000 0000 000000
2013-10-30 00:13:23,0.08,1.85,0.00,22.89,24.99,27.85,5.78,29.92,1000.99,2053.13,2764.75,2832.14,3074.02,349.49,318.65,19.30,0000 0000 0000 0000 000000
2013-10-30 00:14:23,0.05,1.85,0.00,22.90,24.98,27.86,6.03,30.08,1000.99,2053.14,2764.40,2832.09,3074.01,351.34,320.41,19.30,0000 0000 0000 0000 000000
2013-10-30 00:15:23,0.06,1.85,0.00,22.91,24.97,27.81,5.82,30.04,1000.99,2053.09,2764.19,2832.05,3074.00,349.82,318.93,19.31,0000 0000 0000 0000 000000
2013-10-30 00:16:24,0.04,1.85,0.00,22.91,24.97,27.78,5.89,30.13,1000.98,2053.15,2764.08,2832.03,3074.00,349.95,319.04,19.31,0000 0000 0000 0000 000000
2013-10-30 00:17:24,0.07,1.85,0.00,22.87,24.97,27.77,5.93,30.08,1000.95,2053.21,2764.03,2832.01,3073.99,350.20,319.29,19.32,0000 0000 0000 0000 000000
2013-10-30 00:18:24,0.06,1.85,0.00,22.90,24.97,27.74,5.77,30.17,1000.91,2053.20,2764.01,2832.00,3073.98,350.77,319.77,19.32,0000 0000 0000 0000 000000
2013-10-30 00:19:24,-0.00,1.85,0.00,22.90,24.97,27.73,5.92,30.33,1000.84,2053.19,2764.00,2832.00,3073.95,349.62,318.70,19.33,0000 0000 0000 0000 000000
2013-10-30 00:20:25,-0.01,1.85,0.00,22.87,24.97,27.71,6.05,30.21,1000.81,2053.21,2764.00,2832.00,3073.79,351.56,320.27,19.34,0000 0000 0000 0000 000000
2013-10-30 00:21:25,0.02,1.85,0.00,22.88,24.97,27.72,5.81,30.29,1000.79,2053.25,2764.00,2832.00,3073.62,349.68,318.96,19.34,0000 0000 0000 0000 000000
2013-10-30 00:22:25,0.09,1.85,0.00,22.86,24.97,27.76,5.73,30.13,1000.77,2053.28,2763.91,2831.98,3073.48,349.85,318.82,19.35,0000 0000 0000 0000 000000
2013-10-30 00:23:25,0.06,1.85,0.00,22.86,24.97,27.75,5.64,30.13,1000.70,2053.25,2763.60,2831.96,3073.23,348.73,317.89,19.35,0000 0000 0000 0000 000000
2013-10-30 00:24:26,0.11,1.85,0.00,22.87,24.97,27.71,5.88,30.08,1000.66,2053.46,2763.35,2831.97,3073.12,349.92,318.95,19.36,0000 0000 0000 0000 000000
2013-10-30 00:25:26,0.16,1.85,0.00,22.87,24.96,27.70,5.92,30.17,1000.65,2053.49,2763.17,2831.96,3073.06,350.93,319.73,19.37,0000 0000 0000 0000 000000
2013-10-30 00:26:26,0.11,1.85,0.00,22.85,24.95,27.75,5.74,30.42,1000.66,2053.62,2763.06,2831.86,3073.02,349.79,318.54,19.37,0000 0000 0000 0000 000000
2013-10-30 00:27:26,0.15,1.85,0.00,22.83,24.95,27.72,5.69,30.08,1000.62,2053.68,2763.02,2831.69,3073.00,349.16,318.14,19.38,0000 0000 0000 0000 000000
2013-10-30 00:28:27,0.11,1.85,0.00,22.82,24.95,27.75,5.73,30.04,1000.60,2053.73,2763.00,2831.59,3073.00,349.43,318.49,19.38,0000 0000 0000 0000 000000
2013-10-30 00:29:27,0.04,1.85,0.00,22.83,24.95,27.76,6.08,30.29,1000.63,2053.64,2763.00,2831.31,3073.00,350.56,319.37,19.39,0000 0000 0000 0000 000000
2013-10-30 00:30:27,0.02,1.85,0.00,22.85,24.95,27.81,5.87,30.21,1000.75,2053.70,2762.99,2831.19,3073.00,350.46,319.50,19.39,0000 0000 0000 0000 000000
2013-10-30 00:31:27,0.06,1.85,0.00,22.86,24.95,27.78,5.78,30.08,1000.88,2053.76,2762.94,2831.11,3073.00,349.23,318.81,19.40,0000 0000 0000 0000 000000
2013-10-30 00:32:28,0.06,1.85,0.00,22.85,24.94,27.74,5.68,30.13,1000.94,2053.75,2762.74,2831.05,3072.98,349.52,318.17,19.41,0000 0000 0000 0000 000000
2013-10-30 00:33:28,0.08,1.86,0.00,22.83,24.94,27.75,5.91,30.29,1000.99,2053.85,2762.50,2831.02,3072.96,350.42,319.80,19.41,0000 0000 0000 0000 000000
2013-10-30 00:34:28,0.10,1.86,0.00,22.83,24.93,27.72,5.88,30.38,1000.98,2053.83,2762.22,2831.00,3072.97,351.58,320.74,19.42,0000 0000 0000 0000 000000
2013-10-30 00:35:28,0.06,1.86,0.00,22.81,24.92,27.72,6.01,30.42,1000.97,2053.86,2762.11,2831.01,3072.91,350.18,319.35,19.42,0000 0000 0000 0000 000000
2013-10-30 00:36:29,0.04,1.86,0.00,22.83,24.92,27.73,5.96,30.38,1000.98,2053.86,2762.05,2831.00,3072.62,350.21,318.97,19.43,0000 0000 0000 0000 000000
2013-10-30 00:37:29,0.05,1.86,0.00,22.80,24.92,27.70,5.65,30.25,1000.99,2053.87,2762.02,2831.00,3072.34,348.78,318.08,19.44,0000 0000 0000 0000 000000
2013-10-30 00:38:30,0.06,1.86,0.00,22.79,24.92,27.67,6.05,30.29,1000.96,2053.88,2762.00,2831.00,3072.17,350.93,319.93,19.44,0000 0000 0000 0000 000000
2013-10-30 00:39:30,0.02,1.86,0.00,22.78,24.92,27.72,5.80,30.33,1000.89,2053.91,2761.98,2831.00,3072.09,349.69,319.21,19.45,0000 0000 0000 0000 000000
2013-10-30 00:40:30,0.04,1.86,0.00,22.74,24.92,27.72,5.78,30.29,1000.80,2053.93,2761.97,2830.99,3072.05,349.60,318.72,19.45,0000 0000 0000 0000 000000
2013-10-30 00:41:30,0.03,1.86,0.00,22.77,24.91,27.70,5.79,30.50,1000.89,2053.94,2761.89,2830.97,3072.01,349.47,318.61,19.46,0000 0000 0000 0000 000000
2013-10-30 00:42:31,0.04,1.86,0.00,22.77,24.90,27.68,5.67,30.46,1000.96,2053.96,2761.60,2830.97,3072.00,349.16,318.46,19.47,0000 0000 0000 0000 000000
2013-10-30 00:43:31,0.08,1.86,0.00,22.78,24.90,27.69,6.08,30.67,1000.96,2053.96,2761.28,2830.87,3072.00,350.56,319.71,19.47,0000 0000 0000 0000 000000
2013-10-30 00:44:31,0.07,1.86,0.00,22.79,24.90,27.67,5.84,30.58,1000.91,2053.96,2761.11,2830.66,3072.00,349.76,319.02,19.48,0000 0000 0000 0000 000000
2013-10-30 00:45:31,0.08,1.86,0.00,22.82,24.90,27.65,5.70,30.33,1000.89,2053.97,2761.04,2830.54,3072.00,349.33,318.54,19.48,0000 0000 0000 0000 000000
2013-10-30 00:46:32,0.05,1.86,0.00,22.80,24.90,27.68,5.75,30.21,1000.90,2053.98,2761.01,2830.44,3072.00,348.96,318.23,19.49,0000 0000 0000 0000 000000
2013-10-30 00:47:32,0.02,1.86,0.00,22.78,24.90,27.65,5.70,30.29,1000.93,2053.99,2761.00,2830.36,3071.99,349.14,318.84,19.49,0000 0000 0000 0000 000000
2013-10-30 00:48:32,0.02,1.86,0.00,22.77,24.90,27.65,6.01,30.25,1000.97,2053.97,2761.00,2830.21,3071.97,350.11,319.17,19.50,0000 0000 0000 0000 000000
2013-10-30 00:49:32,0.01,1.86,0.00,22.75,24.89,27.66,6.14,30.38,1000.96,2053.96,2760.99,2830.13,3071.92,351.19,320.17,19.51,0000 0000 0000 0000 000000
2013-10-30 00:50:33,0.03,1.86,0.00,22.73,24.89,27.68,5.81,30.17,1000.94,2053.97,2760.99,2830.06,3071.80,349.15,318.53,19.51,0000 0000 0000 0000 000000
2013-10-30 00:51:33,0.06,1.86,0.00,22.73,24.88,27.64,5.87,30.17,1000.90,2053.98,2760.92,2830.04,3071.53,348.90,318.35,19.52,0000 0000 0000 0000 000000
2013-10-30 00:52:33,0.07,1.86,0.00,22.72,24.87,27.67,6.07,30.42,1000.92,2053.98,2760.69,2830.02,3071.26,350.49,319.72,19.52,0000 0000 0000 0000 000000
2013-10-30 00:53:34,0.08,1.86,0.00,22.72,24.87,27.69,6.03,30.33,1000.90,2053.98,2760.34,2830.00,3071.12,350.44,319.66,19.53,0000 0000 0000 0000 000000
2013-10-30 00:54:34,0.07,1.86,0.00,22.73,24.87,27.73,5.87,30.25,1000.90,2053.99,2760.15,2830.00,3071.05,349.59,318.87,19.54,0000 0000 0000 0000 000000
2013-10-30 00:55:34,0.03,1.86,0.00,22.72,24.87,27.73,6.00,30.54,1000.87,2053.99,2760.09,2830.00,3071.03,350.82,319.99,19.54,0000 0000 0000 0000 000000
2013-10-30 00:56:35,0.01,1.86,0.00,22.71,24.87,27.75,5.58,30.13,1000.75,2053.99,2760.05,2830.00,3071.04,349.10,318.41,19.55,0000 0000 0000 0000 000000
2013-10-30 00:57:35,0.00,1.86,0.00,22.72,24.87,27.74,5.79,30.33,1000.71,2053.99,2760.03,2830.00,3071.03,349.74,319.10,19.55,0000 0000 0000 0000 000000
2013-10-30 00:58:35,0.01,1.86,0.00,22.73,24.86,27.73,5.87,30.42,1000.68,2053.99,2760.01,2830.00,3071.01,350.31,319.69,19.56,0000 0000 0000 0000 000000
2013-10-30 00:59:35,0.01,1.86,0.00,22.74,24.85,27.74,6.06,30.63,1000.68,2053.99,2760.00,2829.97,3071.00,351.14,320.21,19.56,0000 0000 0000 0000 000000
2013-10-30 01:00:36,0.00,1.86,0.00,22.72,24.85,27.72,6.17,30.50,1000.68,2053.99,2760.00,2829.99,3071.00,351.41,320.35,19.57,0000 0000 0000 0000 000000
2013-10-30 01:01:36,0.00,1.86,0.00,22.73,24.85,27.72,5.72,30.21,1000.67,2053.99,2759.96,2829.98,3071.00,349.37,318.60,19.58,0000 0000 0000 0000 000000
2013-10-30 01:02:36,0.01,1.86,0.00,22.69,24.85,27.71,5.78,30.17,1000.68,2053.99,2759.91,2829.96,3070.99,349.89,319.25,19.58,0000 0000 0000 0000 000000
2013-10-30 01:03:36,0.02,1.86,0.00,22.68,24.85,27.69,5.97,30.38,1000.68,2053.99,2759.72,2829.95,3070.99,350.62,319.86,19.59,0000 0000 0000 0000 000000
2013-10-30 01:04:37,0.03,1.86,0.00,22.65,24.85,27.68,6.09,30.38,1000.67,2053.99,2759.55,2829.93,3070.98,350.61,319.60,19.59,0000 0000 0000 0000 000000
2013-10-30 01:05:37,0.04,1.86,0.00,22.65,24.84,27.68,6.04,30.46,1000.60,2053.99,2759.27,2829.79,3070.97,350.68,320.00,19.60,0000 0000 0000 0000 000000
2013-10-30 01:06:37,0.09,1.86,0.00,22.66,24.84,27.67,5.78,30.29,1000.61,2053.99,2759.11,2829.55,3070.97,349.40,318.69,19.61,0000 0000 0000 0000 000000
2013-10-30 01:07:37,0.07,1.86,0.00,22.67,24.83,27.70,6.07,30.54,1000.65,2053.99,2759.04,2829.43,3070.96,351.10,320.24,19.61,0000 0000 0000 0000 000000
2013-10-30 01:08:38,0.07,1.86,0.00,22.67,24.82,27.70,5.67,30.42,1000.68,2053.99,2759.01,2829.22,3070.72,349.18,318.68,19.62,0000 0000 0000 0000 000000
2013-10-30 01:09:38,0.08,1.87,0.00,22.69,24.82,27.70,5.87,30.46,1000.63,2053.99,2759.00,2829.10,3070.56,349.63,318.73,19.62,0000 0000 0000 0000 000000
2013-10-30 01:10:38,0.03,1.87,0.00,22.67,24.82,27.69,5.81,30.29,1000.59,2053.99,2759.00,2829.07,3070.42,349.39,318.66,19.63,0000 0000 0000 0000 000000
2013-10-30 01:11:39,0.03,1.87,0.00,22.67,24.82,27.67,5.97,30.33,1000.58,2053.99,2759.00,2829.04,3070.20,350.56,319.72,19.64,0000 0000 0000 0000 000000
2013-10-30 01:12:39,0.05,1.87,0.00,22.70,24.82,27.68,5.97,30.21,1000.60,2053.99,2758.97,2829.01,3070.08,350.11,318.73,19.64,0000 0000 0000 0000 000000
2013-10-30 01:13:39,0.02,1.87,0.00,22.70,24.82,27.65,5.68,30.25,1000.63,2053.99,2758.88,2829.00,3070.03,349.82,319.03,19.65,0000 0000 0000 0000 000000
2013-10-30 01:14:40,0.02,1.87,0.00,22.67,24.81,27.67,5.80,30.33,1000.59,2053.99,2758.61,2829.00,3070.01,349.60,318.96,19.65,0000 0000 0000 0000 000000
2013-10-30 01:15:40,0.04,1.87,0.00,22.64,24.80,27.67,6.08,30.42,1000.56,2053.99,2758.33,2829.00,3070.00,350.59,319.69,19.66,0000 0000 0000 0000 000000
2013-10-30 01:16:40,0.04,1.87,0.00,22.63,24.80,27.68,5.73,30.17,1000.57,2053.99,2758.17,2829.00,3070.01,350.98,320.27,19.66,0000 0000 0000 0000 000000
2013-10-30 01:17:40,0.02,1.87,0.00,22.64,24.80,27.68,6.07,30.25,1000.62,2054.00,2758.09,2829.00,3070.00,351.46,320.63,19.67,0000 0000 0000 0000 000000
2013-10-30 01:18:41,0.02,1.87,0.00,22.63,24.80,27.67,6.02,30.33,1000.59,2054.00,2758.04,2829.00,3070.00,350.12,319.37,19.68,0000 0000 0000 0000 000000
2013-10-30 01:19:41,0.01,1.87,0.00,22.64,24.80,27.69,5.73,30.25,1000.59,2054.01,2758.01,2828.99,3070.00,349.13,318.62,19.68,0000 0000 0000 0000 000000
2013-10-30 01:20:41,0.01,1.87,0.00,22.62,24.80,27.67,6.00,30.21,1000.59,2054.00,2758.00,2828.96,3069.99,350.16,319.33,19.69,0000 0000 0000 0000 000000
2013-10-30 01:21:41,0.00,1.87,0.00,22.62,24.79,27.66,5.78,30.08,1000.56,2054.00,2757.98,2828.94,3069.96,349.74,319.05,19.69,0000 0000 0000 0000 000000
2013-10-30 01:22:42,0.00,1.87,0.00,22.60,24.78,27.67,6.11,30.17,1000.58,2054.00,2757.99,2828.93,3069.95,351.26,320.43,19.70,0000 0000 0000 0000 000000
2013-10-30 01:23:42,0.00,1.87,0.00,22.61,24.77,27.65,5.82,30.29,1000.59,2054.00,2757.92,2828.90,3069.80,350.02,319.30,19.71,0000 0000 0000 0000 000000
2013-10-30 01:24:42,0.07,1.87,0.00,22.64,24.77,27.66,5.96,30.21,1000.61,2054.00,2757.73,2828.72,3069.58,349.94,319.20,19.71,0000 0000 0000 0000 000000
2013-10-30 01:25:42,0.09,1.87,0.00,22.66,24.77,27.64,6.11,30.04,1000.67,2054.02,2757.47,2828.53,3069.40,350.71,319.69,19.72,0000 0000 0000 0000 000000
2013-10-30 01:26:43,0.12,1.87,0.00,22.67,24.77,27.63,5.71,30.00,1000.74,2054.02,2757.24,2828.41,3069.24,349.64,319.36,19.72,0000 0000 0000 0000 000000
2013-10-30 01:27:43,0.12,1.87,0.00,22.64,24.77,27.63,6.06,30.17,1000.81,2054.01,2757.14,2828.23,3069.12,350.57,319.83,19.73,0000 0000 0000 0000 000000
2013-10-30 01:28:43,0.05,1.87,0.00,22.62,24.77,27.63,5.94,30.25,1000.87,2054.01,2757.06,2828.14,3069.06,349.16,318.20,19.74,0000 0000 0000 0000 000000
2013-10-30 01:29:43,0.05,1.87,0.00,22.61,24.76,27.63,5.79,30.04,1000.80,2054.01,2757.02,2828.07,3069.02,349.23,318.68,19.74,0000 0000 0000 0000 000000
2013-10-30 01:30:44,0.02,1.87,0.00,22.59,24.75,27.61,6.12,30.21,1000.88,2054.01,2757.00,2828.06,3069.02,350.27,319.63,19.75,0000 0000 0000 0000 000000
2013-10-30 01:31:44,0.00,1.87,0.00,22.57,24.75,27.62,6.08,30.38,1000.88,2054.00,2757.00,2828.06,3069.01,350.98,320.31,19.75,0000 0000 0000 0000 000000
2013-10-30 01:32:44,0.00,1.87,0.00,22.58,24.75,27.62,5.76,30.13,1000.85,2054.02,2756.99,2828.02,3069.00,349.98,319.38,19.76,0000 0000 0000 0000 000000
2013-10-30 01:33:44,0.04,1.87,0.00,22.60,24.75,27.61,5.87,30.13,1000.84,2054.07,2756.98,2828.01,3069.00,350.04,319.41,19.76,0000 0000 0000 0000 000000
2013-10-30 01:34:45,0.02,1.87,0.00,22.59,24.75,27.63,5.86,30.25,1000.83,2054.05,2756.93,2828.01,3069.00,349.50,318.92,19.77,0000 0000 0000 0000 000000
2013-10-30 01:35:45,0.00,1.87,0.00,22.58,24.75,27.60,6.06,30.42,1000.85,2054.07,2756.84,2828.00,3069.00,350.73,319.77,19.78,0000 0000 0000 0000 000000
2013-10-30 01:36:45,0.02,1.87,0.00,22.57,24.74,27.60,5.87,30.21,1000.93,2054.05,2756.58,2828.00,3069.00,349.57,318.87,19.78,0000 0000 0000 0000 000000
2013-10-30 01:37:46,0.07,1.87,0.00,22.59,24.74,27.59,5.85,30.25,1000.95,2054.11,2756.25,2828.00,3068.99,349.64,319.09,19.79,0000 0000 0000 0000 000000
2013-10-30 01:38:46,0.07,1.87,0.00,22.61,24.72,27.61,5.73,30.17,1000.90,2054.13,2756.09,2828.00,3068.94,349.03,318.50,19.79,0000 0000 0000 0000 000000
2013-10-30 01:39:46,0.04,1.87,0.00,22.59,24.72,27.61,6.06,30.21,1000.83,2054.11,2756.03,2827.99,3068.76,350.64,319.82,19.80,0000 0000 0000 0000 000000
2013-10-30 01:40:46,0.02,1.87,0.00,22.58,24.72,27.61,5.76,29.75,1000.76,2054.11,2756.01,2827.98,3068.58,349.60,319.00,19.81,0000 0000 0000 0000 000000
2013-10-30 01:41:46,0.06,1.87,0.00,22.57,24.72,27.58,6.08,30.46,1000.77,2054.11,2755.99,2827.95,3068.32,350.41,319.59,19.81,0000 0000 0000 0000 000000
2013-10-30 01:42:47,0.02,1.87,0.00,22.55,24.72,27.55,5.91,30.25,1000.70,2054.09,2755.96,2827.66,3068.15,349.69,318.71,19.82,0000 0000 0000 0000 000000
2013-10-30 01:43:47,0.10,1.87,0.00,22.57,24.72,27.52,5.93,30.17,1000.75,2054.05,2755.83,2827.35,3068.05,349.76,319.15,19.82,0000 0000 0000 0000 000000
2013-10-30 01:44:47,0.09,1.87,0.00,22.54,24.72,27.52,5.94,30.33,1000.63,2054.11,2755.66,2827.24,3068.03,350.82,320.12,19.83,0000 0000 0000 0000 000000
2013-10-30 01:45:47,0.11,1.87,0.00,22.53,24.70,27.55,5.99,30.21,1000.58,2054.17,2755.45,2827.15,3068.01,350.87,320.35,19.83,0000 0000 0000 0000 000000
2013-10-30 01:46:48,0.11,1.88,0.00,22.54,24.70,27.56,5.82,30.33,1000.56,2054.28,2755.21,2827.14,3068.00,350.35,319.51,19.84,0000 0000 0000 0000 000000
2013-10-30 01:47:48,0.09,1.88,0.00,22.54,24.70,27.56,5.81,30.33,1000.56,2054.29,2755.09,2827.09,3068.00,349.10,318.53,19.85,0000 0000 0000 0000 000000
2013-10-30 01:48:48,0.07,1.88,0.00,22.53,24.70,27.55,5.87,30.54,1000.54,2054.43,2755.04,2827.04,3068.00,350.37,320.23,19.85,0000 0000 0000 0000 000000
2013-10-30 01:49:48,0.14,1.88,0.00,22.56,24.70,27.56,5.79,30.25,1000.57,2054.48,2755.01,2827.01,3067.99,349.57,318.92,19.86,0000 0000 0000 0000 000000
2013-10-30 01:50:49,0.04,1.88,0.00,22.56,24.70,27.56,5.85,29.75,1000.54,2054.53,2755.00,2827.00,3067.98,350.59,319.85,19.86,0000 0000 0000 0000 000000
2013-10-30 01:51:49,0.04,1.88,0.00,22.56,24.70,27.52,5.83,30.46,1000.53,2054.70,2755.00,2827.02,3067.98,350.14,319.43,19.87,0000 0000 0000 0000 000000
2013-10-30 01:52:49,0.16,1.88,0.00,22.54,24.69,27.48,5.86,30.33,1000.54,2054.77,2755.00,2827.01,3067.97,349.36,318.76,19.88,0000 0000 0000 0000 000000
2013-10-30 01:53:50,0.05,1.88,0.00,22.51,24.68,27.50,5.73,30.38,1000.56,2054.80,2754.98,2827.00,3067.96,349.41,318.82,19.88,0000 0000 0000 0000 000000
2013-10-30 01:54:50,0.03,1.88,0.00,22.50,24.67,27.55,5.93,30.67,1000.56,2054.83,2754.95,2827.00,3067.84,350.05,319.14,19.89,0000 0000 0000 0000 000000
2013-10-30 01:55:50,0.04,1.88,0.00,22.49,24.67,27.52,6.03,30.96,1000.55,2054.87,2754.92,2827.00,3067.71,349.58,319.01,19.89,0000 0000 0000 0000 000000
2013-10-30 01:56:51,0.05,1.88,0.00,22.50,24.67,27.54,6.07,31.00,1000.54,2054.92,2754.77,2827.00,3067.51,350.74,320.06,19.90,0000 0000 0000 0000 000000
2013-10-30 01:57:51,0.09,1.88,0.00,22.50,24.67,27.54,6.00,30.75,1000.52,2054.89,2754.36,2827.00,3067.28,350.39,319.74,19.91,0000 0000 0000 0000 000000
2013-10-30 01:58:51,0.09,1.88,0.00,22.50,24.67,27.54,6.10,30.63,1000.60,2054.91,2754.15,2826.98,3067.13,350.45,319.56,19.91,0000 0000 0000 0000 000000
2013-10-30 01:59:51,0.08,1.88,0.00,22.47,24.67,27.51,5.85,30.58,1000.59,2054.93,2754.06,2826.99,3067.08,350.08,319.23,19.92,0000 0000 0000 0000 000000
2013-10-30 02:00:51,0.02,1.88,0.00,22.46,24.66,27.53,5.98,30.75,1000.55,2054.95,2754.02,2826.96,3067.03,350.90,320.25,19.92,0000 0000 0000 0000 000000
2013-10-30 02:01:52,0.04,1.88,0.00,22.48,24.65,27.54,5.85,30.42,1000.54,2054.98,2754.00,2826.95,3067.02,349.45,318.91,19.93,0000 0000 0000 0000 000000
2013-10-30 02:02:52,0.02,1.88,0.00,22.52,24.65,27.54,5.94,30.58,1000.53,2054.98,2754.00,2826.95,3067.01,350.20,319.20,19.93,0000 0000 0000 0000 000000
2013-10-30 02:03:52,0.00,1.88,0.00,22.52,24.65,27.53,5.94,30.38,1000.57,2054.99,2753.99,2826.89,3067.00,349.57,319.06,19.94,0000 0000 0000 0000 000000
2013-10-30 02:04:52,0.02,1.88,0.00,22.53,24.65,27.52,5.92,30.38,1000.59,2054.98,2753.93,2826.74,3067.00,350.63,319.94,19.95,0000 0000 0000 0000 000000
2013-10-30 02:05:53,0.03,1.88,0.00,22.52,24.65,27.52,6.09,30.42,1000.55,2054.97,2753.89,2826.55,3067.00,350.52,319.61,19.95,0000 0000 0000 0000 000000
2013-10-30 02:06:53,0.06,1.88,0.00,22.49,24.65,27.51,5.65,30.33,1000.56,2054.97,2753.55,2826.32,3066.99,349.80,318.83,19.96,0000 0000 0000 0000 000000
2013-10-30 02:07:53,0.13,1.88,0.00,22.48,24.64,27.52,5.90,30.46,1000.55,2054.96,2753.23,2826.15,3066.97,349.84,318.91,19.96,0000 0000 0000 0000 000000
2013-10-30 02:08:53,0.09,1.88,0.00,22.47,24.63,27.50,5.67,30.33,1000.60,2054.96,2753.09,2826.08,3066.97,348.11,318.22,19.97,0000 0000 0000 0000 000000
2013-10-30 02:09:54,0.02,1.88,0.00,22.46,24.62,27.48,5.95,30.54,1000.62,2054.96,2753.05,2826.03,3066.91,349.91,319.37,19.98,0000 0000 0000 0000 000000
2013-10-30 02:10:54,0.03,1.88,0.00,22.44,24.62,27.47,5.69,30.42,1000.65,2054.97,2753.02,2826.02,3066.82,349.66,319.51,19.98,0000 0000 0000 0000 000000
2013-10-30 02:11:54,0.03,1.88,0.00,22.43,24.62,27.50,5.98,30.46,1000.74,2054.98,2753.00,2826.03,3066.51,349.82,319.35,19.99,0000 0000 0000 0000 000000
2013-10-30 02:12:55,0.05,1.88,0.00,22.43,24.62,27.50,6.03,30.54,1000.83,2054.98,2753.00,2826.01,3066.21,350.66,320.01,19.99,0000 0000 0000 0000 000000
2013-10-30 02:13:55,0.06,1.89,0.00,22.41,24.62,27.49,5.76,30.38,1000.87,2054.99,2752.99,2826.00,3066.09,349.56,319.03,20.00,0000 0000 0000 0000 000000
2013-10-30 02:14:55,0.02,1.89,0.00,22.42,24.62,27.48,5.91,30.58,1000.92,2054.99,2752.97,2826.00,3066.04,350.51,319.19,20.00,0000 0000 0000 0000 000000
2013-10-30 02:15:55,0.00,1.89,0.00,22.41,24.61,27.48,5.89,30.33,1000.87,2054.99,2752.90,2826.00,3066.01,349.91,319.82,20.01,0000 0000 0000 0000 000000
2013-10-30 02:16:56,0.02,1.89,0.00,22.42,24.60,27.47,6.02,30.42,1000.88,2054.99,2752.59,2826.00,3066.01,350.56,320.15,20.02,0000 0000 0000 0000 000000
2013-10-30 02:17:56,0.06,1.89,0.00,22.44,24.60,27.46,5.97,30.46,1000.85,2054.99,2752.45,2826.00,3066.00,350.34,319.63,20.02,0000 0000 0000 0000 000000
2013-10-30 02:18:56,0.00,1.89,0.00,22.43,24.60,27.49,5.58,30.38,1000.85,2054.98,2752.24,2825.97,3066.00,348.29,318.00,20.03,0000 0000 0000 0000 000000
2013-10-30 02:19:56,0.04,1.89,0.00,22.41,24.60,27.47,5.84,30.58,1000.86,2054.99,2752.13,2825.95,3066.00,350.37,320.49,20.03,0000 0000 0000 0000 000000
2013-10-30 02:20:56,0.02,1.89,0.00,22.43,24.60,27.46,5.88,29.67,1000.87,2054.99,2752.05,2825.93,3066.00,350.39,319.79,20.04,0000 0000 0000 0000 000000
2013-10-30 02:21:57,0.02,1.89,0.00,22.45,24.60,27.47,5.83,30.54,1000.79,2054.99,2752.02,2825.91,3066.00,350.10,319.88,20.05,0000 0000 0000 0000 000000
2013-10-30 02:22:57,0.00,1.89,0.00,22.45,24.59,27.47,5.83,30.21,1000.76,2054.99,2752.00,2825.92,3065.97,349.79,319.15,20.05,0000 0000 0000 0000 000000
2013-10-30 02:23:57,0.00,1.89,0.00,22.42,24.58,27.46,5.99,30.46,1000.74,2054.99,2752.00,2825.78,3065.98,350.73,320.20,20.06,0000 0000 0000 0000 000000
2013-10-30 02:24:57,0.04,1.89,0.00,22.41,24.57,27.45,5.86,30.63,1000.72,2054.99,2752.00,2825.65,3065.95,349.66,319.22,20.06,0000 0000 0000 0000 000000
2013-10-30 02:25:58,0.02,1.89,0.00,22.39,24.57,27.44,5.73,30.63,1000.78,2054.99,2751.99,2825.42,3065.82,349.93,319.36,20.07,0000 0000 0000 0000 000000
2013-10-30 02:26:58,0.11,1.89,0.00,22.38,24.57,27.45,5.74,30.38,1000.81,2054.99,2751.95,2825.18,3065.50,348.53,318.36,20.07,0000 0000 0000 0000 000000
2013-10-30 02:27:58,0.11,1.89,0.00,22.37,24.57,27.44,5.91,30.54,1000.79,2054.99,2751.82,2825.11,3065.29,349.11,318.79,20.08,0000 0000 0000 0000 000000
2013-10-30 02:28:58,0.07,1.89,0.00,22.38,24.57,27.44,5.95,30.50,1000.84,2054.99,2751.55,2825.05,3065.15,350.23,319.83,20.09,0000 0000 0000 0000 000000
2013-10-30 02:29:59,0.08,1.89,0.00,22.37,24.56,27.45,6.02,30.79,1000.86,2054.99,2751.24,2825.02,3065.08,350.96,320.51,20.09,0000 0000 0000 0000 000000
2013-10-30 02:30:59,0.06,1.89,0.00,22.37,24.55,27.44,5.74,30.38,1000.92,2054.99,2751.09,2825.02,3065.04,349.90,319.17,20.10,0000 0000 0000 0000 000000
2013-10-30 02:31:59,0.02,1.89,0.00,22.37,24.55,27.42,5.94,30.33,1000.93,2054.99,2751.03,2825.01,3065.01,350.49,320.09,20.10,0000 0000 0000 0000 000000
2013-10-30 02:32:59,0.01,1.89,0.00,22.36,24.55,27.40,5.74,30.13,1000.93,2054.99,2751.01,2825.00,3065.00,349.69,319.38,20.11,0000 0000 0000 0000 000000
2013-10-30 02:34:00,0.00,1.89,0.00,22.37,24.55,27.41,5.84,30.08,1000.96,2054.99,2751.00,2825.00,3065.00,349.25,318.63,20.12,0000 0000 0000 0000 000000
2013-10-30 02:35:00,0.00,1.89,0.00,22.39,24.55,27.42,5.71,30.42,1000.94,2054.99,2751.00,2825.00,3065.00,348.96,318.54,20.12,0000 0000 0000 0000 000000
2013-10-30 02:36:00,0.00,1.89,0.00,22.40,24.55,27.43,6.13,30.46,1000.92,2054.99,2751.00,2825.00,3065.00,349.59,319.30,20.13,0000 0000 0000 0000 000000